Time,TemperatureF,DewpointF,PressureIn,WindDirection,WindDirectionDegrees,WindSpeedMPH,WindSpeedGustMPH,Humidity,HourlyPrecipIn,Conditions,Clouds,dailyrainin,SolarRadiationWatts/m^2,SoftwareType,DateUTC
2013-08-20 00:07:00,62.2,60.0,30.12,SSW,213,0.0,-999.0,92,-99.99,,,0.01,0,weatherlink.com 1.10,2013-08-20 04:07:00,
2013-08-20 00:22:00,62.1,60.0,30.13,SSW,213,0.0,-999.0,93,-99.99,,,0.01,0,weatherlink.com 1.10,2013-08-20 04:22:00,
2013-08-20 00:37:00,62.0,60.0,30.12,SSW,213,0.0,-999.0,93,-99.99,,,0.01,0,weatherlink.com 1.10,2013-08-20 04:37:00,
2013-08-20 00:52:00,61.8,60.0,30.12,SSW,213,0.0,-999.0,93,-99.99,,,0.01,0,weatherlink.com 1.10,2013-08-20 04:52:00,
2013-08-20 01:07:00,61.7,60.0,30.12,SSW,212,0.0,-999.0,93,-99.99,,,0.01,0,weatherlink.com 1.10,2013-08-20 05:07:00,
2013-08-20 01:22:00,61.7,60.0,30.12,SSW,213,0.0,-999.0,93,-99.99,,,0.01,0,weatherlink.com 1.10,2013-08-20 05:22:00,
2013-08-20 01:37:00,61.4,59.0,30.12,SSW,213,0.0,-999.0,93,-99.99,,,0.01,0,weatherlink.com 1.10,2013-08-20 05:37:00,
2013-08-20 01:52:00,61.1,59.0,30.11,SSW,213,0.0,-999.0,93,-99.99,,,0.01,0,weatherlink.com 1.10,2013-08-20 05:52:00,
2013-08-20 02:07:00,60.7,59.0,30.11,SSW,212,0.0,-999.0,94,-99.99,,,0.01,0,weatherlink.com 1.10,2013-08-20 06:07:00,
2013-08-20 02:22:00,60.4,59.0,30.11,SSW,213,0.0,-999.0,94,-99.99,,,0.01,0,weatherlink.com 1.10,2013-08-20 06:22:00,
2013-08-20 02:37:00,60.2,59.0,30.11,SSW,213,0.0,-999.0,94,-99.99,,,0.01,0,weatherlink.com 1.10,2013-08-20 06:37:00,
2013-08-20 02:52:00,60.0,58.0,30.11,SSW,213,0.0,-999.0,94,-99.99,,,0.01,0,weatherlink.com 1.10,2013-08-20 06:52:00,
2013-08-20 03:07:00,59.8,58.0,30.11,SSW,213,0.0,-999.0,94,-99.99,,,0.01,0,weatherlink.com 1.10,2013-08-20 07:07:00,
2013-08-20 03:22:00,59.7,58.0,30.11,SSW,213,0.0,-999.0,94,-99.99,,,0.01,0,weatherlink.com 1.10,2013-08-20 07:22:00,
2013-08-20 03:37:00,59.6,58.0,30.11,SSW,213,0.0,-999.0,94,-99.99,,,0.01,0,weatherlink.com 1.10,2013-08-20 07:37:00,
2013-08-20 03:52:00,59.6,58.0,30.11,SSW,212,0.0,-999.0,94,-99.99,,,0.01,0,weatherlink.com 1.10,2013-08-20 07:52:00,
2013-08-20 04:07:00,59.6,58.0,30.11,SSW,213,0.0,-999.0,94,-99.99,,,0.01,0,weatherlink.com 1.10,2013-08-20 08:07:00,
2013-08-20 04:22:00,59.5,58.0,30.11,SSW,213,0.0,-999.0,94,-99.99,,,0.00,0,weatherlink.com 1.10,2013-08-20 08:22:00,
2013-08-20 04:37:00,59.4,58.0,30.11,SSW,213,0.0,-999.0,94,-99.99,,,0.00,0,weatherlink.com 1.10,2013-08-20 08:37:00,
2013-08-20 04:52:00,59.2,58.0,30.11,SSW,212,0.0,-999.0,94,-99.99,,,0.00,0,weatherlink.com 1.10,2013-08-20 08:52:00,
2013-08-20 05:07:00,59.0,58.0,30.11,SSW,213,0.0,-999.0,95,-99.99,,,0.00,0,weatherlink.com 1.10,2013-08-20 09:07:00,
2013-08-20 05:22:00,58.9,58.0,30.11,SSW,213,0.0,-999.0,95,-99.99,,,0.00,0,weatherlink.com 1.10,2013-08-20 09:22:00,
2013-08-20 05:37:00,58.7,57.0,30.12,SSW,212,0.0,-999.0,95,-99.99,,,0.00,0,weatherlink.com 1.10,2013-08-20 09:37:00,
2013-08-20 05:52:00,58.6,57.0,30.12,SSW,213,0.0,-999.0,95,-99.99,,,0.00,0,weatherlink.com 1.10,2013-08-20 09:52:00,
2013-08-20 06:07:00,58.6,57.0,30.13,SSW,212,0.0,-999.0,95,-99.99,,,0.00,0,weatherlink.com 1.10,2013-08-20 10:07:00,
2013-08-20 06:22:00,58.5,57.0,30.14,SSW,213,0.0,-999.0,95,-99.99,,,0.00,0,weatherlink.com 1.10,2013-08-20 10:22:00,
2013-08-20 06:37:00,58.3,57.0,30.14,SSW,212,0.0,-999.0,95,-99.99,,,0.00,12,weatherlink.com 1.10,2013-08-20 10:37:00,
2013-08-20 06:52:00,58.5,57.0,30.15,SSW,212,0.0,-999.0,95,-99.99,,,0.00,23,weatherlink.com 1.10,2013-08-20 10:52:00,
2013-08-20 07:07:00,59.0,58.0,30.15,SSW,212,0.0,-999.0,95,-99.99,,,0.00,42,weatherlink.com 1.10,2013-08-20 11:07:00,
2013-08-20 07:22:00,59.5,58.0,30.15,SSW,213,0.0,-999.0,95,-99.99,,,0.00,47,weatherlink.com 1.10,2013-08-20 11:22:00,
2013-08-20 07:37:00,60.1,59.0,30.16,SSW,212,0.0,-999.0,96,-99.99,,,0.00,62,weatherlink.com 1.10,2013-08-20 11:37:00,
2013-08-20 07:52:00,60.9,60.0,30.16,SSW,213,0.0,-999.0,96,-99.99,,,0.00,62,weatherlink.com 1.10,2013-08-20 11:52:00,
2013-08-20 08:07:00,62.2,61.0,30.16,SSW,213,0.0,-999.0,96,-99.99,,,0.00,200,weatherlink.com 1.10,2013-08-20 12:07:00,
2013-08-20 08:22:00,65.4,65.0,30.16,SSW,213,0.0,-999.0,97,-99.99,,,0.00,265,weatherlink.com 1.10,2013-08-20 12:22:00,
2013-08-20 08:37:00,68.0,67.0,30.17,SSW,213,0.0,-999.0,97,-99.99,,,0.00,313,weatherlink.com 1.10,2013-08-20 12:37:00,
2013-08-20 08:52:00,69.3,69.0,30.17,SW,214,3.0,-999.0,97,-99.99,,,0.00,357,weatherlink.com 1.10,2013-08-20 12:52:00,
2013-08-20 09:07:00,69.4,68.0,30.17,West,281,0.0,-999.0,96,-99.99,,,0.00,411,weatherlink.com 1.10,2013-08-20 13:07:00,
2013-08-20 09:22:00,70.4,69.0,30.17,West,261,0.0,-999.0,96,-99.99,,,0.00,466,weatherlink.com 1.10,2013-08-20 13:22:00,
2013-08-20 09:37:00,72.4,71.0,30.17,NE,46,0.0,-999.0,94,-99.99,,,0.00,503,weatherlink.com 1.10,2013-08-20 13:37:00,
2013-08-20 09:52:00,74.6,71.0,30.18,NE,44,0.0,-999.0,88,-99.99,,,0.00,533,weatherlink.com 1.10,2013-08-20 13:52:00,
2013-08-20 10:07:00,77.6,71.0,30.18,NE,48,0.0,-999.0,81,-99.99,,,0.00,570,weatherlink.com 1.10,2013-08-20 14:07:00,
2013-08-20 10:22:00,79.6,71.0,30.18,NNE,32,0.0,-999.0,74,-99.99,,,0.00,612,weatherlink.com 1.10,2013-08-20 14:22:00,
2013-08-20 10:37:00,80.2,70.0,30.18,WSW,237,0.0,-999.0,71,-99.99,,,0.00,642,weatherlink.com 1.10,2013-08-20 14:37:00,
2013-08-20 10:52:00,81.4,71.0,30.18,NW,317,2.0,-999.0,70,-99.99,,,0.00,686,weatherlink.com 1.10,2013-08-20 14:52:00,
2013-08-20 11:07:00,82.5,71.0,30.19,NW,317,0.0,-999.0,69,-99.99,,,0.00,701,weatherlink.com 1.10,2013-08-20 15:07:00,
2013-08-20 11:22:00,84.4,71.0,30.18,NW,312,1.0,-999.0,64,-99.99,,,0.00,742,weatherlink.com 1.10,2013-08-20 15:22:00,
2013-08-20 11:37:00,84.5,71.0,30.17,NW,314,0.0,-999.0,64,-99.99,,,0.00,758,weatherlink.com 1.10,2013-08-20 15:37:00,
2013-08-20 11:52:00,84.2,69.0,30.17,NW,315,1.0,-999.0,61,-99.99,,,0.00,784,weatherlink.com 1.10,2013-08-20 15:52:00,
2013-08-20 12:07:00,83.9,71.0,30.17,NW,316,2.0,-999.0,65,-99.99,,,0.00,817,weatherlink.com 1.10,2013-08-20 16:07:00,
2013-08-20 12:22:00,83.8,70.0,30.16,NNW,329,0.0,-999.0,63,-99.99,,,0.00,257,weatherlink.com 1.10,2013-08-20 16:22:00,
2013-08-20 12:37:00,83.9,70.0,30.16,SSW,211,1.0,-999.0,63,-99.99,,,0.00,879,weatherlink.com 1.10,2013-08-20 16:37:00,
2013-08-20 12:52:00,85.6,70.0,30.16,SSW,209,2.0,-999.0,60,-99.99,,,0.00,849,weatherlink.com 1.10,2013-08-20 16:52:00,
2013-08-20 13:07:00,86.5,68.0,30.16,SE,129,1.0,-999.0,55,-99.99,,,0.00,803,weatherlink.com 1.10,2013-08-20 17:07:00,
2013-08-20 13:22:00,87.2,69.0,30.16,South,177,1.0,-999.0,55,-99.99,,,0.00,807,weatherlink.com 1.10,2013-08-20 17:22:00,
2013-08-20 13:37:00,86.1,68.0,30.16,SSW,197,0.0,-999.0,55,-99.99,,,0.00,831,weatherlink.com 1.10,2013-08-20 17:37:00,
2013-08-20 13:52:00,86.2,69.0,30.16,SSW,209,1.0,-999.0,56,-99.99,,,0.00,824,weatherlink.com 1.10,2013-08-20 17:52:00,
2013-08-20 14:07:00,86.8,69.0,30.15,NNW,331,0.0,-999.0,55,-99.99,,,0.00,821,weatherlink.com 1.10,2013-08-20 18:07:00,
2013-08-20 14:22:00,87.5,68.0,30.15,West,259,0.0,-999.0,53,-99.99,,,0.00,777,weatherlink.com 1.10,2013-08-20 18:22:00,
2013-08-20 14:37:00,86.4,68.0,30.15,NNE,21,0.0,-999.0,54,-99.99,,,0.00,770,weatherlink.com 1.10,2013-08-20 18:37:00,
2013-08-20 14:52:00,86.4,68.0,30.15,SW,225,1.0,-999.0,54,-99.99,,,0.00,744,weatherlink.com 1.10,2013-08-20 18:52:00,
2013-08-20 15:07:00,86.9,68.0,30.15,SW,219,2.0,-999.0,54,-99.99,,,0.00,729,weatherlink.com 1.10,2013-08-20 19:07:00,
2013-08-20 15:22:00,87.6,69.0,30.14,North,355,0.0,-999.0,55,-99.99,,,0.00,691,weatherlink.com 1.10,2013-08-20 19:22:00,
2013-08-20 15:37:00,88.4,69.0,30.14,WSW,249,1.0,-999.0,52,-99.99,,,0.00,671,weatherlink.com 1.10,2013-08-20 19:37:00,
2013-08-20 15:52:00,88.4,67.0,30.13,WSW,242,2.0,-999.0,49,-99.99,,,0.00,621,weatherlink.com 1.10,2013-08-20 19:52:00,
2013-08-20 16:07:00,88.0,68.0,30.13,NNE,20,2.0,-999.0,51,-99.99,,,0.00,585,weatherlink.com 1.10,2013-08-20 20:07:00,
2013-08-20 16:22:00,88.0,67.0,30.13,SW,226,3.0,-999.0,50,-99.99,,,0.00,554,weatherlink.com 1.10,2013-08-20 20:22:00,
2013-08-20 16:37:00,87.9,67.0,30.12,South,184,0.0,-999.0,50,-99.99,,,0.00,490,weatherlink.com 1.10,2013-08-20 20:37:00,
2013-08-20 16:52:00,87.7,67.0,30.12,SW,229,1.0,-999.0,50,-99.99,,,0.00,448,weatherlink.com 1.10,2013-08-20 20:52:00,
2013-08-20 17:07:00,87.4,68.0,30.12,West,278,0.0,-999.0,52,-99.99,,,0.00,411,weatherlink.com 1.10,2013-08-20 21:07:00,
2013-08-20 17:22:00,86.6,67.0,30.13,SW,215,0.0,-999.0,52,-99.99,,,0.00,353,weatherlink.com 1.10,2013-08-20 21:22:00,
2013-08-20 17:37:00,85.7,67.0,30.13,SSW,203,2.0,-999.0,53,-99.99,,,0.00,98,weatherlink.com 1.10,2013-08-20 21:37:00,
2013-08-20 17:52:00,84.5,68.0,30.13,SW,221,0.0,-999.0,57,-99.99,,,0.00,93,weatherlink.com 1.10,2013-08-20 21:52:00,
2013-08-20 18:07:00,83.4,67.0,30.12,SW,220,0.0,-999.0,59,-99.99,,,0.00,77,weatherlink.com 1.10,2013-08-20 22:07:00,
2013-08-20 18:22:00,82.4,68.0,30.12,SW,221,0.0,-999.0,61,-99.99,,,0.00,69,weatherlink.com 1.10,2013-08-20 22:22:00,
2013-08-20 18:37:00,81.3,69.0,30.12,SW,220,0.0,-999.0,67,-99.99,,,0.00,60,weatherlink.com 1.10,2013-08-20 22:37:00,
2013-08-20 18:52:00,80.2,69.0,30.13,SW,221,0.0,-999.0,68,-99.99,,,0.00,49,weatherlink.com 1.10,2013-08-20 22:52:00,
2013-08-20 19:07:00,79.1,69.0,30.13,SW,220,0.0,-999.0,71,-99.99,,,0.00,37,weatherlink.com 1.10,2013-08-20 23:07:00,
2013-08-20 19:22:00,78.0,69.0,30.13,SW,220,0.0,-999.0,73,-99.99,,,0.00,26,weatherlink.com 1.10,2013-08-20 23:22:00,
2013-08-20 19:37:00,76.7,68.0,30.13,SW,220,0.0,-999.0,75,-99.99,,,0.00,14,weatherlink.com 1.10,2013-08-20 23:37:00,
2013-08-20 19:52:00,75.3,68.0,30.14,SW,220,0.0,-999.0,78,-99.99,,,0.00,0,weatherlink.com 1.10,2013-08-20 23:52:00,
2013-08-20 20:07:00,73.9,67.0,30.14,SW,220,0.0,-999.0,79,-99.99,,,0.00,0,weatherlink.com 1.10,2013-08-21 00:07:00,
2013-08-20 20:22:00,72.6,67.0,30.14,SW,220,0.0,-999.0,81,-99.99,,,0.00,0,weatherlink.com 1.10,2013-08-21 00:22:00,
2013-08-20 20:37:00,71.6,66.0,30.15,SW,220,0.0,-999.0,83,-99.99,,,0.00,0,weatherlink.com 1.10,2013-08-21 00:37:00,
2013-08-20 20:52:00,70.6,66.0,30.16,SW,220,0.0,-999.0,84,-99.99,,,0.00,0,weatherlink.com 1.10,2013-08-21 00:52:00,
2013-08-20 21:07:00,69.8,65.0,30.16,SW,220,0.0,-999.0,85,-99.99,,,0.00,0,weatherlink.com 1.10,2013-08-21 01:07:00,
2013-08-20 21:22:00,69.0,65.0,30.17,SW,220,0.0,-999.0,87,-99.99,,,0.00,0,weatherlink.com 1.10,2013-08-21 01:22:00,
2013-08-20 21:37:00,68.4,65.0,30.17,SW,220,0.0,-999.0,88,-99.99,,,0.00,0,weatherlink.com 1.10,2013-08-21 01:37:00,
2013-08-20 21:52:00,67.8,65.0,30.18,SW,220,0.0,-999.0,89,-99.99,,,0.00,0,weatherlink.com 1.10,2013-08-21 01:52:00,
2013-08-20 22:07:00,67.2,64.0,30.18,SW,220,0.0,-999.0,89,-99.99,,,0.00,0,weatherlink.com 1.10,2013-08-21 02:07:00,
2013-08-20 22:22:00,66.8,64.0,30.18,SW,220,0.0,-999.0,89,-99.99,,,0.00,0,weatherlink.com 1.10,2013-08-21 02:22:00,
2013-08-20 22:37:00,66.4,64.0,30.18,SW,220,0.0,-999.0,90,-99.99,,,0.00,0,weatherlink.com 1.10,2013-08-21 02:37:00,
2013-08-20 22:52:00,66.1,63.0,30.18,SW,220,0.0,-999.0,90,-99.99,,,0.00,0,weatherlink.com 1.10,2013-08-21 02:52:00,
2013-08-20 23:07:00,65.7,63.0,30.18,SW,220,0.0,-999.0,90,-99.99,,,0.00,0,weatherlink.com 1.10,2013-08-21 03:07:00,
2013-08-20 23:22:00,65.3,63.0,30.18,SW,220,0.0,-999.0,91,-99.99,,,0.00,0,weatherlink.com 1.10,2013-08-21 03:22:00,
2013-08-20 23:37:00,65.0,62.0,30.18,SW,220,0.0,-999.0,91,-99.99,,,0.00,0,weatherlink.com 1.10,2013-08-21 03:37:00,
2013-08-20 23:52:00,64.7,62.0,30.18,SW,220,0.0,-999.0,91,-99.99,,,0.00,0,weatherlink.com 1.10,2013-08-21 03:52:00,